Location: Banff
(51.1667°N, 115.5667°W)
Time: 13:28:24
(UTC+00:00)

Vanguard 1 Rocket - Pass Details

Date: 03 December 2020
Orbit: 655 x 4222 km, 34.3° (Epoch: 23 January)

Event Time Altitude Azimuth Distance (km) Brightness Sun altitude
Rises 09:40:35 0° 247° (WSW) 8,269 - -51.8°
Reaches altitude 10° 09:46:28 10° 243° (WSW) 7,383 - -51.1°
Maximum altitude 10:10:18 48° 180° (S) 4,463 - -47.9°
Exits shadow 10:11:36 48° 172° (S) 4,405 10.5 -47.7°
Drops below altitude 10° 10:27:12 10° 113° (ESE) 5,429 11.7 -45.5°
Sets 10:30:43 0° 107° (ESE) 6,043 12.1 -45.0°
